Weather History for Pascagoula, MS

Change the Weather History Date:

Monday, February 4, 2013

  Actual Average Record
Temperature  
Mean Temperature 50 °F -  
Max Temperature 64 °F 60 °F 79 °F (1957)
Min Temperature 35 °F 41 °F 21 °F (1970)
Degree Days  
Heating Degree Days 16    
Moisture  
Dew Point 42 °F    
Average Humidity 82    
Maximum Humidity 100    
Minimum Humidity 45    
Precipitation  
Precipitation 0.10 in - - ()
Sea Level Pressure  
Sea Level Pressure 30.08 in    
Wind  
Wind Speed 1 mph (SE)    
Max Wind Speed 6 mph    
Max Gust Speed -    
Visibility 7 miles    
Events Rain    
Averages and records for this station are not official NWS values.
T = Trace of Precipitation, MM = Missing Value Source: NWS Daily Summary

Daily Weather History Graph

Daily Weather History Graph

Search for Another Location

Airport:

Trip Planner

Search our weather history database for the weather conditions in past years. The results will help you decide how hot, cold, wet, or windy it might be!

Date:

Astronomy

Feb. 04, 2013 Rise Set
Actual Time 6:43 AM CST 5:33 PM CST
Civil Twilight 6:18 AM CST 5:58 PM CST
Nautical Twilight 5:49 AM CST 6:27 PM CST
Astronomical Twilight 5:21 AM CST 6:55 PM CST
Moon 1:13 AM CST (2/4) 12:02 PM CST (2/4)
Length of Visible Light 11h 40m
Length of Day
10h 50m
Last Quarter, 37% of the Moon is Illuminated
Feb 4
Last Quarter
Feb 10
New
Feb 17
First Quarter
Feb 25
Full
Mar 4
Last Quarter

Hourly Weather History & Observations

Time (CST) Temp. Dew Point Humidity Pressure Visibility Wind Dir Wind Speed Gust Speed Precip Events Conditions
12:00 AM 39.2 °F 37.4 °F 93% 30.14 in 2.0 mi Calm Calm - N/A   Clear
12:07 AM 41.0 °F 39.2 °F 93% 30.13 in 1.0 mi Calm Calm - N/A   Clear
12:16 AM 41.0 °F 39.2 °F 93% 30.14 in 3.0 mi Calm Calm - N/A   Clear
12:34 AM 37.4 °F 37.4 °F 100% 30.13 in 2.5 mi Calm Calm - N/A   Partly Cloudy
12:53 AM 39.9 °F 37.9 °F 93% 30.13 in 8.0 mi Calm Calm - N/A   Partly Cloudy
1:13 AM 35.6 °F 35.6 °F 100% 30.12 in 1.8 mi Calm Calm - N/A   Clear
1:24 AM 37.4 °F 35.6 °F 93% 30.12 in 0.8 mi Calm Calm - N/A   Clear
1:43 AM 37.4 °F 35.6 °F 93% 30.11 in 2.0 mi Calm Calm - N/A   Clear
1:53 AM 36.0 °F 35.1 °F 97% 30.12 in 0.8 mi Calm Calm - N/A   Clear
2:03 AM 37.4 °F 35.6 °F 93% 30.11 in 2.0 mi Calm Calm - N/A   Clear
2:11 AM 37.4 °F 35.6 °F 93% 30.11 in 7.0 mi Calm Calm - N/A   Clear
2:53 AM 36.0 °F 35.1 °F 97% 30.11 in 3.0 mi Calm Calm - N/A   Clear
4:53 AM 39.0 °F 37.0 °F 93% 30.10 in 10.0 mi Calm Calm - N/A   Clear
5:53 AM 37.9 °F 37.0 °F 97% 30.10 in 10.0 mi Calm Calm - N/A   Clear
6:53 AM 39.9 °F 37.9 °F 93% 30.12 in 10.0 mi Calm Calm - N/A   Clear
7:53 AM 44.1 °F 39.9 °F 85% 30.11 in 10.0 mi Calm Calm - N/A   Clear
8:53 AM 46.9 °F 39.9 °F 77% 30.12 in 10.0 mi Calm Calm - N/A   Clear
9:53 AM 53.1 °F 41.0 °F 64% 30.14 in 10.0 mi Calm Calm - N/A   Clear
10:53 AM 57.9 °F 43.0 °F 58% 30.12 in 10.0 mi Variable 3.5 mph - N/A   Clear
11:53 AM 61.0 °F 42.1 °F 50% 30.10 in 10.0 mi SSE 4.6 mph - N/A   Clear
12:53 PM 62.1 °F 44.1 °F 52% 30.07 in 10.0 mi ESE 3.5 mph - N/A   Clear
1:53 PM 63.0 °F 44.1 °F 50% 30.05 in 10.0 mi Variable 4.6 mph - N/A   Clear
2:53 PM 64.0 °F 42.1 °F 45% 30.04 in 10.0 mi SE 3.5 mph - N/A   Clear
3:53 PM 63.0 °F 43.0 °F 48% 30.02 in 10.0 mi SSE 4.6 mph - N/A   Scattered Clouds
4:53 PM 61.0 °F 44.1 °F 54% 30.02 in 10.0 mi SE 3.5 mph - N/A   Mostly Cloudy
5:53 PM 57.0 °F 48.0 °F 72% 30.01 in 10.0 mi SSE 5.8 mph - 0.00 in Rain Light Rain
6:53 PM 55.9 °F 52.0 °F 87% 30.02 in 10.0 mi ESE 3.5 mph - 0.02 in Rain Light Rain
7:53 PM 54.0 °F 52.0 °F 93% 30.02 in 10.0 mi Calm Calm - 0.00 in   Mostly Cloudy
8:53 PM 54.0 °F 52.0 °F 93% 30.02 in 10.0 mi Calm Calm - N/A   Overcast
9:53 PM 54.0 °F 52.0 °F 93% 30.01 in 10.0 mi Calm Calm - N/A   Overcast
10:53 PM 55.0 °F 52.0 °F 89% 30.01 in 6.0 mi Calm Calm - 0.01 in Rain Rain
11:53 PM 55.0 °F 53.1 °F 93% 30.01 in 5.0 mi Calm Calm - 0.07 in Rain Light Rain